Hourly Weather Boltutino

Today, 1 August, Sunday

Time Temperature Precipitation Wind Pressure Humidity
00:00 +18°C° 0 mm 1 mps 737 mmHg 72%
01:00 +17°C° 0 mm 2 mps 737 mmHg 72%
02:00 +17°C° 0 mm 2 mps 737 mmHg 72%
03:00 +17°C° 0.2 mm 2 mps 737 mmHg 77%
04:00 +17°C° 0.2 mm 2 mps 737 mmHg 81%
05:00 +17°C° 0.2 mm 2 mps 736 mmHg 86%
06:00 +18°C° 0.2 mm 2 mps 736 mmHg 88%
07:00 +18°C° 0.2 mm 2 mps 737 mmHg 90%
08:00 +18°C° 0.2 mm 2 mps 737 mmHg 91%
09:00 +19°C° 0 mm 3 mps 737 mmHg 89%
10:00 +20°C° 0 mm 3 mps 737 mmHg 87%
11:00 +21°C° 0 mm 4 mps 737 mmHg 85%
12:00 +22°C° 0.1 mm 4 mps 737 mmHg 81%
13:00 +23°C° 0.1 mm 4 mps 737 mmHg 76%
14:00 +25°C° 0.1 mm 4 mps 737 mmHg 72%
15:00 +25°C° 0.3 mm 4 mps 737 mmHg 72%
16:00 +25°C° 0.3 mm 3 mps 737 mmHg 72%
17:00 +26°C° 0.3 mm 3 mps 737 mmHg 72%
18:00 +24°C° 0.1 mm 2 mps 737 mmHg 76%
19:00 +23°C° 0.1 mm 2 mps 736 mmHg 80%
20:00 +22°C° 0.1 mm 1 mps 736 mmHg 84%
21:00 +21°C° 0 mm 1 mps 736 mmHg 86%
22:00 +20°C° 0 mm 1 mps 736 mmHg 87%
23:00 +20°C° 0 mm 1 mps 736 mmHg 88%

Tomorrow, 2 August, Monday

Time Temperature Precipitation Wind Pressure Humidity
00:00 +20°C° 0 mm 1 mps 736 mmHg 89%
01:00 +19°C° 0 mm 1 mps 736 mmHg 91%
02:00 +18°C° 0 mm 2 mps 736 mmHg 92%
03:00 +18°C° 0 mm 2 mps 736 mmHg 93%
04:00 +18°C° 0 mm 2 mps 735 mmHg 94%
05:00 +18°C° 0 mm 2 mps 735 mmHg 95%
06:00 +20°C° 0 mm 3 mps 735 mmHg 88%
07:00 +22°C° 0 mm 3 mps 735 mmHg 82%
08:00 +25°C° 0 mm 3 mps 734 mmHg 75%
09:00 +25°C° 0.3 mm 4 mps 734 mmHg 76%
10:00 +25°C° 0.3 mm 4 mps 734 mmHg 77%
11:00 +25°C° 0.3 mm 5 mps 734 mmHg 78%
12:00 +27°C° 0.6 mm 5 mps 733 mmHg 72%
13:00 +28°C° 0.6 mm 5 mps 733 mmHg 67%
14:00 +29°C° 0.6 mm 5 mps 732 mmHg 61%
15:00 +28°C° 0.8 mm 5 mps 732 mmHg 64%
16:00 +28°C° 0.8 mm 4 mps 731 mmHg 67%
17:00 +27°C° 0.8 mm 4 mps 731 mmHg 70%
18:00 +25°C° 1.6 mm 4 mps 731 mmHg 77%
19:00 +22°C° 1.6 mm 4 mps 731 mmHg 85%
20:00 +19°C° 1.6 mm 4 mps 731 mmHg 92%
21:00 +19°C° 0.2 mm 4 mps 732 mmHg 94%
22:00 +18°C° 0.2 mm 4 mps 732 mmHg 96%
23:00 +18°C° 0.2 mm 4 mps 732 mmHg 97%

Day after tomorrow, 3 August, Tuesday

Time Temperature Precipitation Wind Pressure Humidity
00:00 +17°C° 0.1 mm 4 mps 732 mmHg 97%
01:00 +17°C° 0.1 mm 4 mps 733 mmHg 97%
02:00 +17°C° 0.1 mm 4 mps 733 mmHg 96%
03:00 +15°C° 0 mm 4 mps 734 mmHg 96%
04:00 +15°C° 0 mm 4 mps 734 mmHg 96%
05:00 +15°C° 0 mm 4 mps 735 mmHg 95%
06:00 +15°C° 0 mm 4 mps 735 mmHg 93%
07:00 +17°C° 0 mm 4 mps 736 mmHg 90%
08:00 +17°C° 0 mm 4 mps 736 mmHg 88%
09:00 +18°C° 0.2 mm 4 mps 737 mmHg 83%
10:00 +19°C° 0.2 mm 4 mps 737 mmHg 77%
11:00 +20°C° 0.2 mm 4 mps 737 mmHg 71%
12:00 +21°C° 0 mm 5 mps 737 mmHg 63%
13:00 +22°C° 0 mm 5 mps 738 mmHg 54%
14:00 +23°C° 0 mm 5 mps 738 mmHg 46%
15:00 +22°C° 0 mm 5 mps 738 mmHg 49%
16:00 +22°C° 0 mm 4 mps 738 mmHg 53%
17:00 +21°C° 0 mm 4 mps 738 mmHg 57%
18:00 +20°C° 0 mm 3 mps 738 mmHg 61%
19:00 +18°C° 0 mm 3 mps 739 mmHg 65%
20:00 +17°C° 0 mm 2 mps 739 mmHg 68%
21:00 +16°C° 0 mm 2 mps 739 mmHg 70%
22:00 +16°C° 0 mm 2 mps 739 mmHg 72%
23:00 +15°C° 0 mm 2 mps 740 mmHg 73%

4 August, Wednesday

Time Temperature Precipitation Wind Pressure Humidity
00:00 +14°C° 0 mm 2 mps 740 mmHg 78%
01:00 +14°C° 0 mm 2 mps 740 mmHg 83%
02:00 +13°C° 0 mm 2 mps 740 mmHg 89%
03:00 +13°C° 0 mm 2 mps 740 mmHg 90%
04:00 +13°C° 0 mm 2 mps 741 mmHg 91%
05:00 +13°C° 0 mm 2 mps 741 mmHg 92%
06:00 +15°C° 0 mm 2 mps 741 mmHg 85%
07:00 +17°C° 0 mm 2 mps 741 mmHg 78%
08:00 +19°C° 0 mm 2 mps 742 mmHg 71%
09:00 +20°C° 0.3 mm 3 mps 742 mmHg 69%
10:00 +20°C° 0.3 mm 3 mps 742 mmHg 68%
11:00 +21°C° 0.3 mm 4 mps 742 mmHg 66%
12:00 +21°C° 0.8 mm 4 mps 742 mmHg 67%
13:00 +21°C° 0.8 mm 3 mps 742 mmHg 68%
14:00 +21°C° 0.8 mm 3 mps 742 mmHg 69%
15:00 +21°C° 0.8 mm 3 mps 742 mmHg 71%
16:00 +21°C° 0.8 mm 2 mps 742 mmHg 74%
17:00 +21°C° 0.8 mm 2 mps 742 mmHg 76%
18:00 +20°C° 0.2 mm 1 mps 742 mmHg 79%
19:00 +19°C° 0.2 mm 1 mps 742 mmHg 82%
20:00 +15°C° 0.2 mm 0 mps 743 mmHg 85%
21:00 +15°C° 0 mm 0 mps 743 mmHg 86%
22:00 +15°C° 0 mm 0 mps 743 mmHg 87%
23:00 +15°C° 0 mm 1 mps 743 mmHg 87%

5 August, Thursday

Time Temperature Precipitation Wind Pressure Humidity
00:00 +15°C° 0 mm 1 mps 743 mmHg 88%
01:00 +15°C° 0 mm 1 mps 742 mmHg 89%
02:00 +14°C° 0 mm 2 mps 742 mmHg 90%
03:00 +14°C° 0 mm 2 mps 742 mmHg 90%
04:00 +15°C° 0 mm 2 mps 742 mmHg 90%
05:00 +15°C° 0 mm 2 mps 742 mmHg 90%
06:00 +15°C° 0 mm 2 mps 742 mmHg 87%
07:00 +16°C° 0 mm 2 mps 742 mmHg 84%
08:00 +17°C° 0 mm 2 mps 742 mmHg 81%
09:00 +17°C° 0.3 mm 2 mps 742 mmHg 83%
10:00 +16°C° 0.3 mm 2 mps 742 mmHg 86%
11:00 +16°C° 0.3 mm 2 mps 741 mmHg 88%
12:00 +16°C° 0.4 mm 3 mps 741 mmHg 89%
13:00 +16°C° 0.4 mm 3 mps 741 mmHg 90%
14:00 +15°C° 0.4 mm 4 mps 741 mmHg 91%
15:00 +17°C° 0.2 mm 4 mps 740 mmHg 91%
16:00 +17°C° 0.2 mm 4 mps 740 mmHg 91%
17:00 +17°C° 0.2 mm 4 mps 739 mmHg 91%
18:00 +17°C° 0 mm 4 mps 739 mmHg 92%
19:00 +17°C° 0 mm 4 mps 739 mmHg 93%
20:00 +17°C° 0 mm 4 mps 738 mmHg 94%
21:00 +17°C° 0.1 mm 4 mps 738 mmHg 94%
22:00 +17°C° 0.1 mm 4 mps 738 mmHg 93%
23:00 +17°C° 0.1 mm 4 mps 737 mmHg 93%

6 August, Friday

Time Temperature Precipitation Wind Pressure Humidity
00:00 +17°C° 0.3 mm 4 mps 737 mmHg 93%
01:00 +17°C° 0.3 mm 4 mps 737 mmHg 94%
02:00 +16°C° 0.3 mm 5 mps 737 mmHg 94%
03:00 +17°C° 0.4 mm 4 mps 736 mmHg 95%
04:00 +17°C° 0.4 mm 4 mps 736 mmHg 95%
05:00 +17°C° 0.4 mm 3 mps 735 mmHg 96%
06:00 +17°C° 0 mm 4 mps 735 mmHg 91%
07:00 +17°C° 0 mm 5 mps 735 mmHg 87%
08:00 +19°C° 0 mm 5 mps 734 mmHg 83%
09:00 +21°C° 0 mm 6 mps 734 mmHg 75%
10:00 +23°C° 0 mm 6 mps 734 mmHg 67%
11:00 +26°C° 0 mm 7 mps 734 mmHg 58%
12:00 +26°C° 0.1 mm 6 mps 734 mmHg 60%
13:00 +24°C° 0.1 mm 6 mps 734 mmHg 61%
14:00 +25°C° 0.1 mm 5 mps 734 mmHg 63%
15:00 +23°C° 0.5 mm 5 mps 734 mmHg 70%
16:00 +23°C° 0.5 mm 4 mps 734 mmHg 76%
17:00 +22°C° 0.5 mm 4 mps 734 mmHg 83%
18:00 +21°C° 1.5 mm 3 mps 734 mmHg 87%
19:00 +19°C° 1.5 mm 3 mps 734 mmHg 92%
20:00 +18°C° 1.5 mm 3 mps 735 mmHg 96%
21:00 +17°C° 0 mm 2 mps 735 mmHg 96%
22:00 +17°C° 0 mm 2 mps 735 mmHg 96%
23:00 +16°C° 0 mm 2 mps 735 mmHg 96%
Show more

We Need Your Consent

Meteoprog and our Service Providers may store and access personal data such as cookies, device identifiers or other similar technologies on your device and process such data to personalise content and ads, as well as provide social media features and to analyse the traffic.

  • Store and/or access information on your device

    Cookies, device identifiers or other information can be stored or accessed on your device for the purposes indicated above.

  • Personalised ads and content, ad and content measurement, audience insights, and products development

    Ads and content can be personalised based on a profile. More data can be added to better personalise ads and content. Ad and content performance can be measured. Insights about the audience who saw the ads and content can be derived. Such data can be used to develop or improve user’s experience, systems and software.

By clicking ‘I Agree’ you will allow the use of indicated cookies, device identifiers, web beacons or other similar technologies. Your settings can be changed in the browser on your device.

For certain purposes, legitimate interests may be relied on, rather than consent. You can read more about this in our Privacy and Cookie Policy.